K0FJ-1 Weather Reports


time (UTC)temp
C
wind
direction
speed
KPH
gust
KPH
rain 1hr
cm
rain 24hr
cm
rain mn
cm
humidity
%
barometer
mb
20260906202503 32 157 11.3 32.2 0.00 0.08 0.08 50 1015.9
20260906202003 31 167 17.7 41.8 0.00 0.08 0.08 51 1015.7
20260906201503 32 169 14.5 41.8 0.00 0.08 0.08 49 1015.8
20260906201003 32 163 9.7 32.2 0.00 0.08 0.08 48 1015.8
20260906200503 32 165 9.7 24.1 0.00 0.08 0.08 51 1016.0
20260906200003 31 156 9.7 22.5 0.00 0.08 0.08 50 1015.9
20260906195503 31 147 9.7 29.0 0.00 0.08 0.08 50 1016.0
20260906195003 31 151 9.7 29.0 0.00 0.08 0.08 51 1016.0
20260906194503 31 157 9.7 27.4 0.00 0.08 0.08 50 1016.2
20260906194003 31 159 9.7 24.1 0.00 0.08 0.08 50 1016.0
20260906193503 31 163 11.3 24.1 0.00 0.08 0.08 50 1016.2
20260906193003 31 166 12.9 30.6 0.00 0.08 0.08 48 1016.3
20260906192503 31 164 12.9 33.8 0.00 0.08 0.08 49 1016.4
20260906192003 31 164 12.9 35.4 0.00 0.08 0.08 48 1016.3
20260906191503 31 162 11.3 35.4 0.00 0.08 0.08 48 1016.3
20260906191003 31 162 11.3 38.6 0.00 0.08 0.08 48 1016.3
20260906190504 31 164 11.3 38.6 0.00 0.08 0.08 49 1016.4
20260906190003 31 168 14.5 37.0 0.00 0.08 0.08 50 1016.5
20260906185503 31 169 12.9 37.0 0.00 0.08 0.08 51 1016.5
20260906185003 31 162 9.7 32.2 0.00 0.08 0.08 51 1016.6
20260906184503 31 168 9.7 29.0 0.00 0.08 0.08 53 1016.6
20260906184003 31 168 11.3 29.0 0.00 0.08 0.08 53 1016.6
20260906183503 31 161 9.7 27.4 0.00 0.08 0.08 54 1016.6
20260906183003 30 163 11.3 29.0 0.00 0.08 0.08 56 1016.6
20260906182503 30 167 12.9 29.0 0.00 0.08 0.08 55 1016.7
20260906182003 30 168 12.9 29.0 0.00 0.08 0.08 55 1016.8
20260906181503 30 172 14.5 35.4 0.00 0.08 0.08 56 1016.9
20260906181003 29 174 14.5 35.4 0.00 0.08 0.08 57 1017.0
20260906180503 29 174 12.9 32.2 0.00 0.08 0.08 58 1017.2
20260906180003 29 170 9.7 32.2 0.00 0.08 0.08 58 1017.2
20260906175503 29 164 9.7 29.0 0.00 0.08 0.08 59 1017.3
20260906175003 28 166 9.7 29.0 0.00 0.08 0.08 60 1017.5
20260906174503 28 160 6.4 29.0 0.00 0.08 0.08 61 1017.5
20260906174003 28 151 6.4 16.1 0.00 0.08 0.08 63 1017.6
20260906173503 28 149 8.0 24.1 0.00 0.08 0.08 63 1017.7
20260906173003 28 145 6.4 24.1 0.00 0.08 0.08 63 1017.9
20260906172503 28 142 3.2 16.1 0.00 0.08 0.08 64 1018.0
20260906172003 27 156 4.8 24.1 0.00 0.08 0.08 66 1017.9
20260906171503 27 156 6.4 24.1 0.00 0.08 0.08 66 1018.1
20260906171003 27 146 6.4 17.7 0.00 0.08 0.08 66 1018.3
20260906170503 27 142 6.4 25.7 0.00 0.08 0.08 66 1018.3
20260906170003 27 146 6.4 25.7 0.00 0.08 0.08 67 1018.3
20260906165503 27 145 4.8 16.1 0.00 0.08 0.08 68 1018.4
20260906165003 27 143 3.2 12.9 0.00 0.08 0.08 70 1018.5
20260906164503 26 136 1.6 11.3 0.00 0.08 0.08 71 1018.7
20260906164003 26 131 1.6 11.3 0.00 0.08 0.08 74 1018.7
20260906163503 26 133 3.2 11.3 0.00 0.08 0.08 73 1018.8
20260906163003 26 120 3.2 9.7 0.00 0.08 0.08 73 1018.8
20260906162503 26 107 1.6 8.0 0.00 0.08 0.08 74 1018.7
20260906162003 25 114 1.6 8.0 0.00 0.08 0.08 76 1018.7
20260906161503 25 111 1.6 8.0 0.00 0.08 0.08 78 1018.7
20260906161003 25 103 3.2 6.4 0.00 0.08 0.08 80 1018.7
20260906160503 24 101 1.6 6.4 0.00 0.08 0.08 80 1018.8
20260906160003 24 100 1.6 6.4 0.00 0.08 0.08 82 1018.8
20260906155503 23 101 1.6 8.0 0.00 0.08 0.08 83 1018.8
20260906155003 23 100 0.0 8.0 0.00 0.08 0.08 82 1018.8
20260906154503 23 93 1.6 4.8 0.00 0.08 0.08 83 1018.8
20260906154003 23 89 1.6 4.8 0.00 0.08 0.08 83 1018.9
20260906153503 23 85 0.0 4.8 0.00 0.08 0.08 86 1018.9
20260906153003 23 90 0.0 4.8 0.00 0.08 0.08 85 1018.9
20260906152503 23 98 0.0 3.2 0.00 0.08 0.08 87 1018.8
20260906152003 22 100 0.0 3.2 0.00 0.08 0.08 88 1019.0
20260906151504 22 97 1.6 3.2 0.00 0.08 0.08 87 1018.9
20260906151003 22 97 1.6 4.8 0.00 0.08 0.08 89 1019.0
20260906150503 22 102 1.6 4.8 0.00 0.08 0.08 90 1018.8
20260906150003 22 110 0.0 4.8 0.00 0.08 0.08 91 1018.7
20260906145503 21 98 1.6 4.8 0.00 0.08 0.08 92 1018.8
20260906145003 21 114 1.6 6.4 0.00 0.08 0.08 92 1018.8
20260906144503 21 127 0.0 6.4 0.00 0.08 0.08 93 1018.7
20260906144003 21 101 0.0 9.7 0.00 0.08 0.08 93 1018.6
20260906143503 21 89 0.0 9.7 0.00 0.08 0.08 93 1018.5
20260906143003 21 110 0.0 4.8 0.00 0.08 0.08 93 1018.5
20260906142503 21 134 0.0 4.8 0.00 0.08 0.08 94 1018.5
20260906142003 21 99 0.0 4.8 0.00 0.08 0.08 94 1018.5
20260906141503 21 109 0.0 6.4 0.00 0.08 0.08 95 1018.4
20260906141003 20 103 1.6 6.4 0.00 0.08 0.08 94 1018.6
20260906140503 20 105 1.6 4.8 0.00 0.08 0.08 94 1018.7
20260906140003 20 110 1.6 6.4 0.00 0.08 0.08 94 1018.7
20260906135503 20 107 0.0 6.4 0.00 0.08 0.08 94 1018.6
20260906135003 20 102 0.0 3.2 0.00 0.08 0.08 94 1018.6
20260906134503 20 153 0.0 3.2 0.00 0.08 0.08 95 1018.7
20260906134003 20 109 0.0 3.2 0.00 0.08 0.08 94 1018.5
20260906133503 20 94 0.0 3.2 0.03 0.08 0.08 94 1018.5
20260906133003 20 0 0.0 0.0 0.03 0.08 0.08 94 1018.4
20260906132504 20 170 0.0 3.2 0.05 0.08 0.08 94 1018.3
20260906132003 20 169 0.0 3.2 0.05 0.08 0.08 94 1018.5
20260906131503 20 153 0.0 1.6 0.08 0.08 0.08 94 1018.4
20260906131003 20 184 0.0 4.8 0.08 0.08 0.08 94 1018.2
20260906130503 20 182 0.0 4.8 0.08 0.08 0.08 94 1018.1
20260906130003 20 178 0.0 3.2 0.08 0.08 0.08 94 1018.1
20260906125503 20 0 0.0 0.0 0.08 0.08 0.08 94 1017.9
20260906125003 20 0 0.0 0.0 0.08 0.08 0.08 94 1017.8
20260906124503 20 0 0.0 0.0 0.08 0.08 0.08 94 1017.6
20260906124003 20 0 0.0 0.0 0.08 0.08 0.08 93 1017.7
20260906123503 20 0 0.0 0.0 0.05 0.05 0.05 93 1017.5
20260906123003 20 0 0.0 0.0 0.05 0.05 0.05 93 1017.5
20260906122503 20 0 0.0 0.0 0.03 0.03 0.03 93 1017.8
20260906122003 20 0 0.0 0.0 0.03 0.03 0.03 93 1018.1
20260906121503 20 0 0.0 0.0 0.00 0.00 0.00 92 1018.2
20260906121003 20 0 0.0 0.0 0.00 0.00 0.00 92 1018.2
20260906120503 20 0 0.0 0.0 0.00 0.00 0.00 92 1018.3
20260906120003 20 0 0.0 0.0 0.00 0.00 0.00 92 1018.3
20260906115503 20 0 0.0 0.0 0.00 0.00 0.00 92 1018.4
20260906115003 20 0 0.0 0.0 0.00 0.00 0.00 91 1018.2
20260906114503 20 0 0.0 0.0 0.00 0.00 0.00 91 1018.2
20260906114003 20 0 0.0 0.0 0.00 0.00 0.00 91 1018.1
20260906113503 20 0 0.0 0.0 0.00 0.00 0.00 91 1018.1
20260906113003 20 0 0.0 0.0 0.00 0.00 0.00 91 1018.1
20260906112503 20 0 0.0 0.0 0.00 0.00 0.00 91 1018.1
20260906112003 20 0 0.0 0.0 0.00 0.00 0.00 91 1018.2
20260906111503 20 0 0.0 0.0 0.00 0.00 0.00 91 1018.2
20260906111003 20 0 0.0 0.0 0.00 0.00 0.00 91 1018.2
20260906110503 20 0 0.0 0.0 0.00 0.00 0.00 91 1018.2
20260906110003 20 0 0.0 0.0 0.00 0.00 0.00 90 1018.1
20260906105503 20 5 0.0 3.2 0.00 0.00 0.00 90 1017.9
20260906105003 20 5 0.0 3.2 0.00 0.00 0.00 90 1017.9
20260906104503 20 40 0.0 3.2 0.00 0.00 0.00 90 1017.9
20260906104003 20 43 0.0 3.2 0.00 0.00 0.00 89 1017.8
20260906103503 20 31 1.6 6.4 0.00 0.00 0.00 89 1017.7
20260906103003 20 26 0.0 6.4 0.00 0.00 0.00 88 1017.7
20260906102503 21 33 0.0 3.2 0.00 0.00 0.00 87 1017.8
20260906102003 21 37 0.0 4.8 0.00 0.00 0.00 87 1017.7
20260906101503 21 27 0.0 6.4 0.00 0.00 0.00 86 1017.8
20260906101003 21 33 1.6 6.4 0.00 0.00 0.00 85 1017.5
20260906100503 21 43 0.0 6.4 0.00 0.00 0.00 84 1017.2
20260906100003 21 24 1.6 6.4 0.00 0.00 0.00 83 1017.2
20260906095503 22 27 1.6 8.0 0.00 0.00 0.00 82 1017.4
20260906095003 22 34 3.2 11.3 0.00 0.00 0.00 80 1017.3
20260906094503 22 27 4.8 11.3 0.00 0.00 0.00 77 1017.1
20260906094003 23 348 6.4 16.1 0.00 0.00 0.00 74 1017.1
20260906093503 23 329 6.4 16.1 0.00 0.00 0.00 72 1017.1
20260906093003 23 330 8.0 19.3 0.00 0.00 0.00 72 1016.9
20260906092503 24 323 9.7 19.3 0.00 0.00 0.00 71 1016.8
20260906092003 25 302 4.8 16.1 0.00 0.00 0.00 69 1016.7
20260906091503 25 218 3.2 12.9 0.00 0.00 0.00 66 1016.3
20260906091003 25 200 6.4 12.9 0.00 0.00 0.00 66 1016.2
20260906090503 25 195 6.4 14.5 0.00 0.00 0.00 66 1016.1
20260906090003 25 186 6.4 14.5 0.00 0.00 0.00 67 1016.0
20260906085503 25 180 8.0 16.1 0.00 0.00 0.00 67 1015.9
20260906085003 25 180 8.0 19.3 0.00 0.00 0.00 66 1015.9
20260906084503 25 179 8.0 19.3 0.00 0.00 0.00 65 1015.8
20260906084003 25 178 8.0 16.1 0.00 0.00 0.00 65 1015.8
20260906083503 25 173 6.4 19.3 0.00 0.00 0.00 65 1015.8
20260906083003 25 173 8.0 22.5 0.00 0.00 0.00 65 1015.8
20260906082503 25 178 6.4 22.5 0.00 0.00 0.00 65 1015.8
20260906082003 25 178 6.4 14.5 0.00 0.00 0.00 65 1015.8
20260906081503 25 173 8.0 19.3 0.00 0.00 0.00 65 1015.9
20260906081003 25 173 8.0 19.3 0.00 0.00 0.00 65 1015.8
20260906080503 25 176 8.0 19.3 0.00 0.00 0.00 65 1015.9
20260906080003 25 176 9.7 20.9 0.00 0.00 0.00 65 1015.8
20260906075503 25 176 9.7 20.9 0.00 0.00 0.00 65 1015.9
20260906075003 25 178 9.7 25.7 0.00 0.00 0.00 65 1015.9
20260906074503 25 177 9.7 25.7 0.00 0.00 0.00 65 1016.0
20260906074003 25 171 8.0 19.3 0.00 0.00 0.00 64 1016.1
20260906073503 25 168 6.4 17.7 0.00 0.00 0.00 64 1016.1
20260906073003 25 169 6.4 16.1 0.00 0.00 0.00 63 1016.1
20260906072503 25 169 8.0 19.3 0.00 0.00 0.00 63 1016.2
20260906072003 26 173 9.7 22.5 0.00 0.00 0.00 62 1016.2
20260906071503 26 174 9.7 27.4 0.00 0.00 0.00 62 1016.0
20260906071003 26 175 8.0 27.4 0.00 0.00 0.00 62 1016.0
20260906070503 26 175 8.0 20.9 0.00 0.00 0.00 62 1016.0
20260906070003 26 171 6.4 14.5 0.00 0.00 0.00 62 1016.1
20260906065503 25 171 4.8 17.7 0.00 0.00 0.00 62 1016.2
20260906065003 25 170 3.2 17.7 0.00 0.00 0.00 63 1016.3
20260906064503 25 170 4.8 17.7 0.00 0.00 0.00 63 1016.4
20260906064003 25 170 4.8 17.7 0.00 0.00 0.00 63 1016.4
20260906063503 25 167 4.8 14.5 0.00 0.00 0.00 63 1016.4
20260906063003 25 163 4.8 12.9 0.00 0.00 0.00 64 1016.4
20260906062503 25 166 3.2 12.9 0.00 0.00 0.00 64 1016.6
20260906062003 25 172 1.6 8.0 0.00 0.00 0.00 64 1016.6
20260906061503 25 169 1.6 11.3 0.00 0.00 0.00 65 1016.7
20260906061003 25 166 1.6 11.3 0.00 0.00 0.00 65 1016.5
20260906060503 25 168 1.6 6.4 0.00 0.00 0.00 65 1016.5
20260906060003 25 165 1.6 6.4 0.00 0.00 0.00 65 1016.4
20260906055503 25 152 1.6 8.0 0.00 0.00 0.00 65 1016.5
20260906055003 25 162 0.0 8.0 0.00 0.00 0.00 66 1016.6
20260906054503 25 175 1.6 9.7 0.00 0.00 0.00 66 1016.5
20260906054003 25 169 3.2 9.7 0.00 0.00 0.00 66 1016.3
20260906053503 25 166 3.2 8.0 0.00 0.00 0.00 66 1016.2
20260906053003 25 167 1.6 8.0 0.00 0.00 0.00 66 1016.2
20260906052503 25 151 1.6 6.4 0.00 0.00 0.00 65 1016.1
20260906052003 25 164 1.6 8.0 0.00 0.00 0.00 65 1016.1
20260906051503 25 171 1.6 8.0 0.00 0.00 0.00 65 1016.0
20260906051003 25 164 1.6 11.3 0.00 0.00 0.00 65 1016.0
20260906050503 25 165 1.6 11.3 0.00 0.00 0.00 64 1015.9
20260906050003 25 137 0.0 3.2 0.00 0.00 0.00 64 1016.0
20260906045503 25 126 0.0 3.2 0.00 0.00 0.00 63 1016.2
20260906045003 25 144 0.0 8.0 0.00 0.00 0.00 63 1016.1
20260906044503 26 145 0.0 8.0 0.00 0.00 0.00 62 1016.1
20260906044003 26 144 0.0 1.6 0.00 0.00 0.00 62 1016.0
20260906043503 26 149 0.0 3.2 0.00 0.00 0.00 61 1016.1
20260906043003 26 161 0.0 3.2 0.00 0.00 0.00 61 1016.2
20260906042503 26 152 0.0 8.0 0.00 0.00 0.00 61 1016.2
20260906042003 26 154 1.6 8.0 0.00 0.00 0.00 61 1016.1
20260906041503 26 161 1.6 11.3 0.00 0.00 0.00 60 1016.0
20260906041003 26 168 1.6 11.3 0.00 0.00 0.00 60 1015.9
20260906040503 26 175 1.6 11.3 0.00 0.00 0.00 60 1015.9
20260906040003 26 172 1.6 14.5 0.00 0.00 0.00 60 1016.0
20260906035503 26 168 3.2 14.5 0.00 0.00 0.00 60 1016.0
20260906035003 26 170 3.2 9.7 0.00 0.00 0.00 60 1015.9
20260906034503 26 171 3.2 11.3 0.00 0.00 0.00 60 1015.8
20260906034003 26 167 1.6 11.3 0.00 0.00 0.00 60 1015.8
20260906033503 26 158 0.0 6.4 0.00 0.00 0.00 60 1015.9
20260906033003 26 156 0.0 6.4 0.00 0.00 0.00 60 1016.0
20260906032503 26 150 0.0 6.4 0.00 0.00 0.00 60 1016.0
20260906032003 26 139 1.6 3.2 0.00 0.00 0.00 60 1016.0
20260906031503 26 148 1.6 9.7 0.00 0.00 0.00 60 1016.0
20260906031003 26 152 0.0 9.7 0.00 0.00 0.00 59 1016.0
20260906030503 26 149 0.0 4.8 0.00 0.00 0.00 59 1015.9
20260906030003 27 150 0.0 6.4 0.00 0.00 0.00 59 1016.0
20260906025503 27 159 1.6 8.0 0.00 0.00 0.00 59 1015.9
20260906025003 27 156 1.6 8.0 0.00 0.00 0.00 59 1015.7
20260906024503 27 126 0.0 8.0 0.00 0.00 0.00 59 1015.7
20260906024003 27 155 1.6 8.0 0.00 0.00 0.00 58 1015.6
20260906023503 27 158 1.6 8.0 0.00 0.00 0.00 58 1015.6
20260906023003 27 154 1.6 11.3 0.00 0.00 0.00 58 1015.6
20260906022503 27 151 3.2 11.3 0.00 0.00 0.00 58 1015.6
20260906022003 28 158 4.8 14.5 0.00 0.00 0.00 57 1015.6
20260906021503 28 163 3.2 14.5 0.00 0.00 0.00 57 1015.6
20260906021003 28 158 1.6 11.3 0.00 0.00 0.00 56 1015.5
20260906020503 28 138 0.0 6.4 0.00 0.00 0.00 55 1015.5
20260906020003 28 137 0.0 4.8 0.00 0.00 0.00 55 1015.4
20260906015503 28 138 1.6 11.3 0.00 0.00 0.00 55 1015.3
20260906015003 28 138 1.6 11.3 0.00 0.00 0.00 54 1015.4
20260906014503 28 150 1.6 11.3 0.00 0.00 0.00 54 1015.3
20260906014003 28 149 1.6 11.3 0.00 0.00 0.00 54 1015.3
20260906013503 29 145 1.6 9.7 0.00 0.00 0.00 53 1015.3
20260906013003 29 150 0.0 3.2 0.00 0.00 0.00 53 1015.3
20260906012503 30 149 0.0 3.2 0.00 0.00 0.00 52 1015.4
20260906012003 30 125 0.0 3.2 0.00 0.00 0.00 52 1015.1
20260906011503 30 135 1.6 8.0 0.00 0.00 0.00 51 1015.0
20260906011003 30 139 1.6 8.0 0.00 0.00 0.00 50 1014.9
20260906010503 30 143 3.2 9.7 0.00 0.00 0.00 50 1014.7
20260906010004 30 144 1.6 9.7 0.00 0.00 0.00 49 1014.6
20260906005503 31 137 1.6 11.3 0.00 0.00 0.00 48 1014.6
20260906005003 31 138 3.2 11.3 0.00 0.00 0.00 48 1014.5
20260906004503 31 144 4.8 11.3 0.00 0.00 0.00 47 1014.4
20260906004003 31 150 4.8 22.5 0.00 0.00 0.00 47 1014.4
20260906003503 32 148 6.4 25.7 0.00 0.00 0.00 46 1014.5
20260906003003 32 149 8.0 30.6 0.00 0.00 0.00 44 1014.4
20260906002503 33 154 6.4 30.6 0.00 0.00 0.00 42 1014.3
20260906002003 33 161 6.4 17.7 0.00 0.00 0.00 38 1014.1
20260906001503 33 163 6.4 22.5 0.00 0.00 0.00 37 1014.1
20260906001003 34 157 4.8 22.5 0.00 0.00 0.00 37 1014.2
20260906000503 34 157 4.8 22.5 0.00 0.00 0.00 37 1014.2
20260906000003 35 166 6.4 20.9 0.00 0.00 0.00 36 1014.1
20260905235503 35 164 8.0 20.9 0.00 0.00 0.00 36 1014.1
20260905235003 35 153 6.4 20.9 0.00 0.00 0.00 36 1014.2
20260905234503 35 154 8.0 22.5 0.00 0.00 0.00 36 1014.2
20260905234003 35 160 8.0 22.5 0.00 0.00 0.00 35 1014.0
20260905233503 35 161 8.0 24.1 0.00 0.00 0.00 35 1014.1
20260905233003 35 154 6.4 24.1 0.00 0.00 0.00 35 1014.1
20260905232503 35 159 8.0 22.5 0.00 0.00 0.00 36 1014.2
20260905232003 35 165 9.7 19.3 0.00 0.00 0.00 36 1014.1
20260905231503 35 163 9.7 20.9 0.00 0.00 0.00 36 1014.0
20260905231003 35 159 8.0 22.5 0.00 0.00 0.00 37 1013.9
20260905230503 35 155 8.0 29.0 0.00 0.00 0.00 37 1013.9
20260905230003 35 158 6.4 29.0 0.00 0.00 0.00 37 1013.8
20260905225503 35 156 4.8 22.5 0.00 0.00 0.00 37 1013.7
20260905225003 35 150 3.2 17.7 0.00 0.00 0.00 37 1013.7
20260905224503 35 158 4.8 14.5 0.00 0.00 0.00 37 1013.8
20260905224003 35 140 3.2 14.5 0.00 0.00 0.00 36 1013.8
20260905223503 36 112 3.2 12.9 0.00 0.00 0.00 36 1013.8
20260905223003 36 121 3.2 8.0 0.00 0.00 0.00 37 1013.7
20260905222503 36 123 3.2 12.9 0.00 0.00 0.00 37 1013.8
20260905222003 36 121 3.2 12.9 0.00 0.00 0.00 36 1013.7
20260905221503 36 130 3.2 14.5 0.00 0.00 0.00 36 1013.7
20260905221003 36 140 3.2 14.5 0.00 0.00 0.00 36 1013.9
20260905220503 36 134 3.2 22.5 0.00 0.00 0.00 36 1013.9
20260905220003 36 148 6.4 24.1 0.00 0.00 0.00 35 1014.0
20260905215503 36 155 6.4 24.1 0.00 0.00 0.00 35 1014.0
20260905215003 36 157 4.8 19.3 0.00 0.00 0.00 35 1014.0
20260905214503 36 158 4.8 19.3 0.00 0.00 0.00 33 1014.1
20260905214003 36 156 6.4 27.4 0.00 0.00 0.00 34 1014.2
20260905213503 36 160 8.0 27.4 0.00 0.00 0.00 36 1014.2
20260905213003 36 153 4.8 16.1 0.00 0.00 0.00 35 1014.2
20260905212503 36 142 3.2 12.9 0.00 0.00 0.00 35 1014.3
20260905212003 36 147 4.8 19.3 0.00 0.00 0.00 33 1014.5
20260905211503 36 149 4.8 22.5 0.00 0.00 0.00 34 1014.6
20260905211003 36 149 6.4 29.0 0.00 0.00 0.00 34 1014.6
20260905210503 36 155 8.0 29.0 0.00 0.00 0.00 34 1014.6
20260905210003 36 153 4.8 19.3 0.00 0.00 0.00 35 1014.7
20260905205503 36 144 4.8 14.5 0.00 0.00 0.00 35 1014.8
20260905205003 36 150 6.4 20.9 0.00 0.00 0.00 33 1014.9
20260905204503 36 152 8.0 20.9 0.00 0.00 0.00 32 1014.9
20260905204003 36 160 8.0 19.3 0.00 0.00 0.00 32 1015.0
20260905203503 36 160 6.4 19.3 0.00 0.00 0.00 33 1015.1
20260905203003 36 152 4.8 22.5 0.00 0.00 0.00 32 1015.2